Location: El Atico
(3.0014°N, 75.4378°W)
Time: 11:36:07
(UTC+00:00)

CZ-2D R/B - Pass Details

Date: 09 December 2025
Orbit: 525 x 597 km, 98.0° (Epoch: 25 January)

Event Time Altitude Azimuth Distance (km) Brightness Sun altitude
Rises 23:39:16 0° 163° (SSE) 2,823 7.0 -11.5°
Reaches altitude 10° 23:41:26 10° 160° (SSE) 1,926 6.1 -12.0°
Maximum altitude 23:45:36 66° 78° (ENE) 653 3.4 -12.9°
Drops below altitude 10° 23:49:46 10° 356° (N) 1,928 5.9 -13.9°
Sets 23:51:56 0° 353° (N) 2,826 6.8 -14.4°
